Location: Aubervilles
(48.9167°N, 2.3833°E)
Time: 15:06:44
(UTC+00:00)

Cosmos 1328 - Pass Details

Date: 03 February 2023
Orbit: 518 x 543 km, 82.5° (Epoch: 30 March)

Event Time Altitude Azimuth Distance (km) Brightness Sun altitude
Rises 17:44:34 0° 187° (S) 2,700 7.7 -9.2°
Reaches altitude 10° 17:46:43 10° 187° (S) 1,809 6.7 -9.5°
Maximum altitude 17:50:42 87° 100° (E) 550 3.8 -10.1°
Drops below altitude 10° 17:54:42 10° 10° (N) 1,809 6.2 -10.8°
Sets 17:56:51 0° 11° (N) 2,700 7.1 -11.1°
